NOAA 16 DEB

Satellite information

Favourite Embed

Satellite Type and Status

DEBRISIN ORBIT

Key statistics

Satellite NOAA 16 DEB at a glance.

Uptime

9162

Days in orbit

Revolutions

≈ 14.2

Per day

Orbit

SSO

Sun Synchronous Orbit

Inclination

98.7

Latest

Satellite identification and parameters

Extended collection of information and parameters for NOAA 16 DEB.

Object identification

Identified? True

Debris? True

Object name: NOAA 16 DEB

International designator: 2000-055DW

Object number (NORAD): 41217

Object ID (CCSDS): 41217

Country: UNITED STATES OF AMERICA (US)

Current information (Y/N): Y

RCS size: SMALL

Orbital parameters

Period: 101.606 minutes

Inclination: 98.7146 deg

SMA: 7212.843 km

Apoapsis: 863.315 km

Periapsis: 806.102 km

RAAN: 317.5207 deg

Eccentricy: 0.0039661

Argument of periapsis: 242.2112 deg

Mean anomaly: 117.504 deg

Mean motion: 14.17238712 rev/day

Mean motion (dot): 0.00003639 rev/day2

B* drag term: 0.0018099 1/REarth

Two-line elements (TLE)

Creation date: Oct. 17, 2025, 6:56 a.m.

Reference frame: TEME

Reference center: EARTH

Epoch: Oct. 16, 2025, 8:04 a.m. UTC

TLE line 0: 0 NOAA 16 DEB

TLE line 1: 1 41217U 00055DW 25289.33657194 .00003639 00000-0 18099-2 0 9999

TLE line 2: 2 41217 98.7146 317.5207 0039661 242.2112 117.5040 14.17238712504818

Live tracking on map

Real-time ground track for satellite NOAA 16 DEB.

In-orbit conjunctions

A list of the most updated potential collisions computed for object NOAA 16 DEB.

Target Orbit TCA Probability of collision Miss distance Type
THOR ABLESTAR DEB LEO 2025-08-08 06:22:08 0.0003335256 30.0 (m) DEBRIS
CZ-6A DEB LEO 2025-06-10 16:00:45 0.000117416 480.0 (m) DEBRIS
SL-16 DEB LEO 2025-02-14 18:44:31 0.0001572059 179.0 (m) DEBRIS
METEOR 1-25 LEO 2024-10-31 16:53:18 0.00010334 991.0 (m) PAYLOAD

Associated space launch

The NOAA K, L and M POES satellites begin the fifth generation of improved environmental monitoring in support of NOAA missions. The instrument payload has significant improvements and additions/deletions. The instrument changes have effected the spacecraft subsystems and data formats.

NOAA 16 DEB was lifted into orbit during the mission ‘Titan II SLV | NOAA 16’, on board a Titan II SLV space rocket.

The launch took place on Sept. 21, 2000, 10:22 a.m. from Space Launch Complex 4W.

For more information about the launch, click the button.

Launch to space Titan II SLV | NOAA 16
Titan II SLV | NOAA 16

Agency: N/A

Status: Launch Successful

Launch date: Sept. 21, 2000, 10:22 a.m. UTC

Rocket: Titan II SLV

Launch pad: Space Launch Complex 4W

Location: Vandenberg SFB, CA, USA

...

Latest news about this satellite

There are no fresh news available about this satellite. Check back as we update our databases every day.


Newsletter sign-up

Weekly statistics, charts and insights to help you stay on top of the space industry.